Location: Tauranga
(37.6860°S, 176.1670°E)
Time: 02:03:03
(UTC+13:00)

Cosmos 2263 Rocket - Pass Details

Date: 24 January 2019
Orbit: 823 x 849 km, 71.0° (Epoch: 16 February)

Event Time Altitude Azimuth Distance (km) Brightness Sun altitude
Rises 23:21:33 0° 218° (SW) 3,411 6.7 -25.9°
Reaches altitude 10° 23:24:33 10° 234° (SW) 2,473 5.5 -26.2°
Maximum altitude 23:28:39 21° 280° (W) 1,818 4.1 -26.6°
Enters shadow 23:30:46 17° 309° (NW) 2,009 4.1 -26.8°
